Radiation Dose at Monitoring Post of Fukushima Daini Nuclear Power Station
Date,Time,MP-1(microSv/h),MP-2(microSv/h),MP-3(microSv/h),MP-4(microSv/h),MP-5(microSv/h),MP-6(microSv/h),MP-7(microSv/h),Wind Direction,Wind Velocity(m/s),Rain
2017/09/01,00:00,0.344,0.210,0.343,0.319,0.314,0.167,0.102,north,11.8,Yes
2017/09/01,00:10,0.343,0.211,0.344,0.321,0.311,0.168,0.101,north-northwest,10.9,Yes
2017/09/01,00:20,0.343,0.210,0.343,0.319,0.315,0.168,0.102,north,11.5,No
2017/09/01,00:30,0.343,0.210,0.345,0.321,0.311,0.168,0.101,north,12.6,No
2017/09/01,00:40,0.344,0.210,0.342,0.320,0.314,0.168,0.102,north,12.3,No
2017/09/01,00:50,0.342,0.210,0.345,0.321,0.312,0.168,0.101,north-northwest,12.8,No
2017/09/01,01:00,0.343,0.209,0.343,0.319,0.313,0.168,0.101,north,12.7,No
2017/09/01,01:10,0.342,0.210,0.345,0.319,0.312,0.168,0.101,north-northwest,10.8,No
2017/09/01,01:20,0.343,0.210,0.342,0.319,0.314,0.168,0.102,north,10.4,No
2017/09/01,01:30,0.341,0.210,0.344,0.321,0.313,0.168,0.101,north-northwest,9.9,No
2017/09/01,01:40,0.344,0.209,0.343,0.319,0.314,0.168,0.101,north-northwest,8.7,Yes
2017/09/01,01:50,0.344,0.209,0.345,0.321,0.311,0.169,0.101,north,11.6,No
2017/09/01,02:00,0.341,0.210,0.343,0.318,0.313,0.168,0.101,north,12.3,Yes
2017/09/01,02:10,0.343,0.209,0.344,0.321,0.314,0.168,0.101,north,11.4,Yes
2017/09/01,02:20,0.342,0.211,0.342,0.320,0.315,0.169,0.102,north,10.7,Yes
2017/09/01,02:30,0.343,0.209,0.344,0.320,0.313,0.168,0.101,north,11.8,Yes
2017/09/01,02:40,0.342,0.211,0.343,0.320,0.314,0.169,0.100,north,10.3,Yes
2017/09/01,02:50,0.344,0.209,0.344,0.322,0.312,0.167,0.102,north,10.3,No
2017/09/01,03:00,0.342,0.210,0.343,0.319,0.316,0.168,0.102,north,9.8,No
2017/09/01,03:10,0.344,0.210,0.345,0.321,0.313,0.168,0.101,north,9.5,No
2017/09/01,03:20,0.342,0.211,0.343,0.319,0.315,0.168,0.102,north,9.8,No
2017/09/01,03:30,0.344,0.210,0.344,0.320,0.312,0.168,0.101,north,9.4,No
2017/09/01,03:40,0.342,0.210,0.341,0.319,0.315,0.167,0.102,north,10.4,Yes
2017/09/01,03:50,0.345,0.209,0.344,0.321,0.312,0.167,0.102,north,9.4,No
2017/09/01,04:00,0.342,0.210,0.341,0.320,0.313,0.168,0.102,north,9.6,No
2017/09/01,04:10,0.344,0.209,0.345,0.320,0.313,0.168,0.102,north,8.6,No
2017/09/01,04:20,0.343,0.211,0.342,0.319,0.313,0.167,0.101,north,9.0,No
2017/09/01,04:30,0.344,0.209,0.345,0.319,0.313,0.168,0.101,north,8.4,No
2017/09/01,04:40,0.344,0.209,0.343,0.322,0.312,0.167,0.101,north-northwest,7.6,No
2017/09/01,04:50,0.341,0.208,0.344,0.318,0.315,0.168,0.102,north,8.0,No
2017/09/01,05:00,0.345,0.211,0.345,0.321,0.312,0.167,0.101,north,7.8,No
2017/09/01,05:10,0.342,0.209,0.343,0.319,0.315,0.168,0.102,north,8.3,No
2017/09/01,05:20,0.343,0.209,0.344,0.321,0.313,0.167,0.101,north,8.5,No
2017/09/01,05:30,0.341,0.209,0.343,0.320,0.314,0.168,0.102,north,8.7,No
2017/09/01,05:40,0.343,0.210,0.345,0.322,0.311,0.167,0.101,north,9.7,No
2017/09/01,05:50,0.343,0.210,0.342,0.320,0.314,0.168,0.101,north,10.1,No
2017/09/01,06:00,0.343,0.211,0.345,0.322,0.313,0.168,0.102,north,11.5,No
2017/09/01,06:10,0.344,0.209,0.343,0.319,0.313,0.168,0.101,north,11.0,No
2017/09/01,06:20,0.342,0.210,0.345,0.322,0.314,0.168,0.102,north,11.2,No
2017/09/01,06:30,0.345,0.210,0.343,0.321,0.311,0.168,0.101,north,11.3,No
2017/09/01,06:40,0.340,0.210,0.345,0.321,0.314,0.168,0.102,north,11.0,No
2017/09/01,06:50,0.346,0.210,0.345,0.321,0.312,0.169,0.101,north,10.4,No
2017/09/01,07:00,0.343,0.210,0.344,0.319,0.315,0.169,0.102,north,10.1,No
2017/09/01,07:10,0.346,0.211,0.344,0.321,0.313,0.170,0.102,north,8.8,No
2017/09/01,07:20,0.343,0.211,0.343,0.319,0.314,0.168,0.102,north,8.9,No
2017/09/01,07:30,0.343,0.210,0.344,0.322,0.313,0.169,0.102,north,8.1,No
2017/09/01,07:40,0.345,0.211,0.343,0.319,0.313,0.168,0.102,north,9.9,No
2017/09/01,07:50,0.341,0.211,0.347,0.321,0.315,0.169,0.102,north-northwest,7.0,No
2017/09/01,08:00,0.346,0.209,0.344,0.321,0.312,0.170,0.103,north,8.2,No
2017/09/01,08:10,0.342,0.209,0.344,0.319,0.316,0.167,0.101,north,9.0,No
2017/09/01,08:20,0.344,0.210,0.345,0.322,0.313,0.169,0.101,north,7.5,No
2017/09/01,08:30,0.344,0.209,0.342,0.318,0.310,0.168,0.101,north,7.0,No
2017/09/01,08:40,0.342,0.211,0.346,0.319,0.315,0.167,0.101,north,7.4,No
2017/09/01,08:50,0.345,0.210,0.344,0.323,0.314,0.168,0.101,north,7.7,No
2017/09/01,09:00,0.344,0.211,0.345,0.320,0.311,0.169,0.102,north,5.9,No
2017/09/01,09:10,0.343,0.211,0.346,0.320,0.316,0.169,0.102,north,7.8,No
2017/09/01,09:20,0.347,0.209,0.343,0.322,0.313,0.168,0.104,north,8.5,No
2017/09/01,09:30,0.344,0.211,0.345,0.320,0.312,0.170,0.102,north,5.9,No
2017/09/01,09:40,0.343,0.211,0.346,0.321,0.318,0.168,0.101,north,7.8,No
2017/09/01,09:50,0.348,0.209,0.342,0.322,0.314,0.168,0.102,north,8.7,No
2017/09/01,10:00,0.345,0.210,0.346,0.320,0.312,0.170,0.102,north,10.2,No
2017/09/01,10:10,0.342,0.211,0.345,0.318,0.313,0.170,0.102,north-northeast,9.2,No
2017/09/01,10:20,0.346,0.211,0.343,0.321,0.315,0.168,0.102,north,9.6,No
2017/09/01,10:30,0.345,0.208,0.345,0.322,0.313,0.169,0.102,north-northeast,10.5,No
2017/09/01,10:40,0.342,0.210,0.346,0.321,0.312,0.170,0.101,north-northeast,10.7,No
2017/09/01,10:50,0.343,0.210,0.343,0.321,0.311,0.171,0.102,north,8.4,No
2017/09/01,11:00,0.340,0.211,0.343,0.319,0.311,0.169,0.101,north,9.5,No
2017/09/01,11:10,0.346,0.210,0.346,0.321,0.317,0.169,0.102,north-northeast,8.5,No
2017/09/01,11:20,0.345,0.210,0.345,0.321,0.316,0.168,0.101,north-northeast,10.3,No
2017/09/01,11:30,0.345,0.209,0.346,0.320,0.313,0.169,0.103,north-northeast,9.6,No
2017/09/01,11:40,0.342,0.211,0.343,0.320,0.315,0.170,0.104,north-northeast,10.5,No
2017/09/01,11:50,0.342,0.212,0.342,0.319,0.313,0.169,0.104,north-northeast,10.9,No
2017/09/01,12:00,0.344,0.210,0.342,0.320,0.312,0.170,0.103,north,8.8,No
2017/09/01,12:10,0.348,0.211,0.343,0.321,0.312,0.170,0.103,north-northeast,9.8,No
2017/09/01,12:20,0.347,0.209,0.343,0.322,0.313,0.169,0.103,north-northeast,11.0,No
2017/09/01,12:30,0.345,0.208,0.343,0.324,0.313,0.170,0.103,north-northeast,11.8,No
2017/09/01,12:40,0.342,0.208,0.342,0.323,0.318,0.171,0.103,north-northeast,11.8,No
2017/09/01,12:50,0.342,0.209,0.345,0.323,0.318,0.169,0.103,north-northeast,11.4,No
2017/09/01,13:00,0.347,0.212,0.344,0.322,0.315,0.171,0.103,north-northeast,10.6,No
2017/09/01,13:10,0.348,0.213,0.348,0.323,0.316,0.170,0.102,north,10.6,No
2017/09/01,13:20,0.346,0.211,0.350,0.322,0.312,0.171,0.102,north-northeast,8.3,No
2017/09/01,13:30,0.345,0.210,0.347,0.320,0.317,0.172,0.103,north-northeast,9.5,No
2017/09/01,13:40,0.349,0.212,0.345,0.321,0.318,0.171,0.103,north-northeast,9.6,No
2017/09/01,13:50,0.348,0.212,0.347,0.326,0.315,0.171,0.103,north-northeast,9.4,No
2017/09/01,14:00,0.344,0.211,0.348,0.323,0.314,0.169,0.102,north-northeast,8.4,No
2017/09/01,14:10,0.347,0.209,0.347,0.324,0.317,0.170,0.103,north-northeast,9.0,No
2017/09/01,14:20,0.347,0.212,0.344,0.320,0.317,0.169,0.104,north-northeast,8.3,No
2017/09/01,14:30,0.344,0.211,0.349,0.325,0.315,0.171,0.103,north-northeast,9.4,No
2017/09/01,14:40,0.347,0.211,0.349,0.326,0.313,0.170,0.102,north-northeast,10.1,No
2017/09/01,14:50,0.347,0.211,0.347,0.322,0.314,0.170,0.102,north-northeast,10.5,No
2017/09/01,15:00,0.346,0.212,0.344,0.322,0.317,0.170,0.103,north-northeast,11.6,No
2017/09/01,15:10,0.344,0.212,0.344,0.322,0.317,0.170,0.103,north-northeast,9.2,No
2017/09/01,15:20,0.348,0.211,0.347,0.327,0.315,0.169,0.102,north-northeast,11.4,No
2017/09/01,15:30,0.345,0.212,0.346,0.325,0.314,0.171,0.102,north-northeast,10.7,No
2017/09/01,15:40,0.343,0.213,0.347,0.321,0.318,0.171,0.103,north-northeast,10.1,No
2017/09/01,15:50,0.348,0.211,0.350,0.326,0.317,0.170,0.103,north-northeast,9.6,No
2017/09/01,16:00,0.346,0.212,0.346,0.326,0.313,0.171,0.101,north-northeast,8.7,No
2017/09/01,16:10,0.347,0.213,0.347,0.322,0.317,0.170,0.102,north-northeast,8.3,No
2017/09/01,16:20,0.350,0.212,0.349,0.325,0.317,0.170,0.103,north,10.1,No
2017/09/01,16:30,0.346,0.213,0.346,0.326,0.315,0.170,0.102,north-northeast,8.9,No
2017/09/01,16:40,0.347,0.212,0.348,0.322,0.315,0.169,0.102,north-northeast,9.5,No
2017/09/01,16:50,0.347,0.212,0.350,0.326,0.319,0.171,0.102,north,9.2,No
2017/09/01,17:00,0.344,0.212,0.345,0.325,0.316,0.170,0.102,north-northeast,5.8,No
2017/09/01,17:10,0.349,0.211,0.349,0.322,0.315,0.170,0.102,north,5.9,No
2017/09/01,17:20,0.346,0.212,0.348,0.326,0.319,0.171,0.102,north,8.7,No
2017/09/01,17:30,0.349,0.211,0.346,0.324,0.315,0.170,0.103,north,8.5,No
2017/09/01,17:40,0.348,0.213,0.349,0.324,0.318,0.170,0.104,north,8.0,Yes
2017/09/01,17:50,0.345,0.213,0.346,0.327,0.317,0.171,0.102,north,6.5,No
2017/09/01,18:00,0.349,0.212,0.350,0.322,0.316,0.170,0.103,north-northeast,5.2,No
2017/09/01,18:10,0.346,0.214,0.348,0.326,0.320,0.172,0.102,north-northeast,4.6,No
2017/09/01,18:20,0.346,0.212,0.346,0.324,0.314,0.170,0.102,north,5.9,No
2017/09/01,18:30,0.348,0.214,0.348,0.325,0.318,0.170,0.103,north,6.4,No
2017/09/01,18:40,0.346,0.212,0.346,0.326,0.316,0.171,0.103,north,6.4,No
2017/09/01,18:50,0.348,0.213,0.350,0.323,0.316,0.170,0.103,north,8.1,No
2017/09/01,19:00,0.347,0.213,0.347,0.326,0.318,0.171,0.102,north,7.5,No
2017/09/01,19:10,0.347,0.214,0.349,0.325,0.314,0.172,0.103,north,7.8,No
2017/09/01,19:20,0.349,0.213,0.346,0.326,0.318,0.170,0.102,north,8.9,No
2017/09/01,19:30,0.345,0.211,0.348,0.325,0.314,0.172,0.102,north,10.3,No
2017/09/01,19:40,0.350,0.213,0.349,0.324,0.317,0.171,0.102,north,8.6,No
2017/09/01,19:50,0.347,0.213,0.347,0.327,0.319,0.171,0.103,north,7.6,No
2017/09/01,20:00,0.349,0.214,0.350,0.324,0.316,0.172,0.103,north,6.7,No
2017/09/01,20:10,0.348,0.213,0.347,0.325,0.318,0.170,0.103,north,6.3,No
2017/09/01,20:20,0.346,0.213,0.350,0.326,0.315,0.172,0.103,north,8.1,No
2017/09/01,20:30,0.349,0.212,0.349,0.324,0.317,0.171,0.103,north,5.2,No
2017/09/01,20:40,0.347,0.213,0.348,0.327,0.315,0.170,0.102,north,5.6,Yes
2017/09/01,20:50,0.349,0.212,0.350,0.322,0.318,0.172,0.102,north,6.5,Yes
2017/09/01,21:00,0.348,0.212,0.346,0.327,0.317,0.169,0.103,north,7.7,No
2017/09/01,21:10,0.347,0.213,0.350,0.325,0.316,0.171,0.103,north,8.9,No
2017/09/01,21:20,0.350,0.212,0.347,0.324,0.319,0.171,0.103,north,9.1,No
2017/09/01,21:30,0.345,0.213,0.349,0.327,0.314,0.171,0.103,north,9.9,Yes
2017/09/01,21:40,0.349,0.212,0.347,0.324,0.318,0.171,0.103,north,7.6,Yes
2017/09/01,21:50,0.347,0.214,0.349,0.326,0.315,0.169,0.102,north,5.8,Yes
2017/09/01,22:00,0.349,0.212,0.348,0.324,0.318,0.170,0.103,north,6.8,Yes
2017/09/01,22:10,0.348,0.212,0.348,0.325,0.316,0.171,0.103,north,6.9,Yes
2017/09/01,22:20,0.346,0.214,0.350,0.325,0.315,0.171,0.102,north,5.9,Yes
2017/09/01,22:30,0.350,0.212,0.347,0.324,0.319,0.171,0.103,north,7.6,Yes
2017/09/01,22:40,0.346,0.212,0.350,0.326,0.316,0.171,0.103,north,8.7,Yes
2017/09/01,22:50,0.350,0.212,0.347,0.323,0.317,0.172,0.102,north,7.1,Yes
2017/09/01,23:00,0.345,0.212,0.348,0.325,0.314,0.171,0.102,north,8.9,Yes
2017/09/01,23:10,0.349,0.212,0.347,0.322,0.316,0.171,0.103,north-northeast,9.4,Yes
2017/09/01,23:20,0.347,0.212,0.347,0.325,0.315,0.172,0.104,north-northeast,10.4,Yes
2017/09/01,23:30,0.347,0.212,0.347,0.322,0.316,0.172,0.103,north-northeast,10.7,Yes
2017/09/01,23:40,0.346,0.212,0.347,0.323,0.315,0.170,0.104,north-northeast,9.8,Yes
2017/09/01,23:50,0.347,0.211,0.346,0.323,0.316,0.171,0.103,north,8.7,Yes
